Weather History for Tracy, MN

Change the Weather History Date:

Thursday, April 11, 2013

  Actual Average (KMML) Record (KMML)
Temperature  
Mean Temperature 30 °F -  
Max Temperature 32 °F 53 °F 85 °F (1977)
Min Temperature 28 °F 33 °F 12 °F (1997)
Degree Days  
Heating Degree Days 35    
Moisture  
Dew Point 29 °F    
Average Humidity 96    
Maximum Humidity 100    
Minimum Humidity 91    
Precipitation  
Precipitation 0.85 in - - ()
Sea Level Pressure  
Sea Level Pressure 29.69 in    
Wind  
Wind Speed 5 mph (NE)    
Max Wind Speed 15 mph    
Max Gust Speed 18 mph    
Visibility 2 miles    
Events Rain , Snow    
Averages and records for this station are not official NWS values.
T = Trace of Precipitation, MM = Missing Value Source: NWS Daily Summary

Daily Weather History Graph

Daily Weather History Graph

Search for Another Location

Airport:

Trip Planner

Search our weather history database for the weather conditions in past years. The results will help you decide how hot, cold, wet, or windy it might be!

Date:

Astronomy

Apr. 11, 2013 Rise Set
Actual Time 6:45 AM CDT 8:02 PM CDT
Civil Twilight 6:15 AM CDT 8:32 PM CDT
Nautical Twilight 5:39 AM CDT 9:08 PM CDT
Astronomical Twilight 5:01 AM CDT 9:46 PM CDT
Moon 7:14 AM CDT (4/11) 9:41 PM CDT (4/11)
Length of Visible Light 14h 16m
Length of Day
13h 16m
New Moon, 2% of the Moon is Illuminated
Apr 11
New Moon
Apr 18
First Quarter
Apr 25
Full
May 2
Last Quarter
May 9
New

Hourly Weather History & Observations

Time (CDT) Temp. Windchill Dew Point Humidity Pressure Visibility Wind Dir Wind Speed Gust Speed Precip Events Conditions
12:18 AM 31.5 °F - 30.6 °F 96% 29.86 in 1.8 mi Calm Calm - N/A   Overcast
12:37 AM 31.3 °F 27.9 °F 30.7 °F 98% 29.85 in 1.8 mi NE 3.5 mph - N/A Snow Light Snow
12:57 AM 31.1 °F 27.7 °F 30.6 °F 98% 29.84 in 2.5 mi NE 3.5 mph - N/A   Overcast
1:17 AM 31.1 °F 26.4 °F 30.2 °F 96% 29.83 in 1.2 mi NE 4.6 mph - N/A Snow Light Snow
1:37 AM 31.1 °F 25.4 °F 30.2 °F 96% 29.82 in 1.5 mi NE 5.8 mph - N/A Snow Light Snow
1:58 AM 30.9 °F 25.2 °F 30.2 °F 97% 29.81 in 1.0 mi NNE 5.8 mph - N/A Snow Light Snow
2:18 AM 29.3 °F 23.2 °F 28.8 °F 98% 29.81 in 1.5 mi NE 5.8 mph - N/A Snow Light Snow
2:37 AM 29.3 °F 23.2 °F 28.4 °F 96% 29.79 in 1.8 mi NNE 5.8 mph - N/A Snow Light Snow
2:57 AM 29.1 °F 23.0 °F 28.4 °F 97% 29.78 in 1.5 mi NNE 5.8 mph - N/A Snow Light Snow
3:18 AM 28.9 °F 23.9 °F 28.2 °F 97% 29.77 in 1.5 mi NNE 4.6 mph - N/A Snow Light Snow
3:38 AM 28.9 °F 23.9 °F 28.2 °F 97% 29.77 in 1.0 mi NE 4.6 mph - N/A Snow Snow
3:58 AM 28.9 °F 22.8 °F 28.2 °F 97% 29.76 in 1.5 mi NE 5.8 mph - N/A Snow Light Snow
4:17 AM 29.1 °F 24.1 °F 28.4 °F 97% 29.76 in 2.0 mi NE 4.6 mph - N/A Snow Light Snow
4:38 AM 29.1 °F 21.3 °F 28.4 °F 97% 29.73 in 0.8 mi NE 8.1 mph - N/A Snow Snow
4:58 AM 29.1 °F 24.1 °F 28.4 °F 97% 29.72 in 1.0 mi NE 4.6 mph - N/A Snow Light Snow
5:18 AM 29.1 °F 22.1 °F 28.4 °F 97% 29.70 in 1.0 mi NE 6.9 mph - N/A Snow Snow
5:37 AM 29.1 °F 25.4 °F 28.4 °F 97% 29.69 in 1.0 mi NE 3.5 mph - N/A Snow Light Snow
5:57 AM 28.9 °F 21.9 °F 28.2 °F 97% 29.69 in 1.0 mi NE 6.9 mph - N/A Snow Light Snow
6:17 AM 28.9 °F 21.9 °F 28.2 °F 97% 29.68 in 1.5 mi NE 6.9 mph - N/A Snow Light Snow
6:37 AM 28.8 °F 25.0 °F 28.0 °F 97% 29.69 in 2.5 mi NE 3.5 mph - N/A Snow Light Snow
6:58 AM 28.4 °F - 27.9 °F 98% 29.68 in 0.5 mi Calm Calm - N/A Snow Snow
7:18 AM 28.8 °F 25.0 °F 28.0 °F 97% 29.67 in 0.5 mi ENE 3.5 mph - N/A Snow Light Snow
7:37 AM 28.4 °F - 27.5 °F 96% 29.67 in 3.0 mi Calm Calm - N/A Snow Light Snow
7:57 AM 28.0 °F - 27.3 °F 97% 29.68 in 3.0 mi Calm Calm - N/A Snow Light Snow
8:17 AM 28.0 °F - 27.1 °F 96% 29.68 in 2.0 mi Calm Calm - N/A Snow Light Snow
8:37 AM 28.2 °F - 27.3 °F 96% 29.68 in 4.0 mi Calm Calm - N/A Snow Light Snow
8:58 AM 28.4 °F - 27.3 °F 96% 29.67 in 3.0 mi Calm Calm - N/A Snow Light Snow
9:17 AM 28.6 °F - 27.5 °F 96% 29.68 in 2.0 mi Calm Calm - N/A Snow Light Snow
9:38 AM 29.3 °F - 28.2 °F 96% 29.67 in 1.5 mi Calm Calm - N/A Snow Light Snow
9:58 AM 30.0 °F - 28.6 °F 94% 29.67 in 1.0 mi Calm Calm - N/A Snow Light Snow
10:17 AM 30.2 °F 26.7 °F 28.9 °F 95% 29.68 in 1.0 mi ENE 3.5 mph - N/A Snow Light Snow
10:38 AM 30.7 °F - 28.9 °F 93% 29.69 in 1.0 mi Calm Calm - N/A Snow Light Snow
10:58 AM 30.9 °F - 29.1 °F 93% 29.69 in 1.0 mi Calm Calm - N/A Snow Light Snow
11:17 AM 31.1 °F - 29.3 °F 93% 29.68 in 1.0 mi Calm Calm - 0.02 in Snow Light Snow
11:37 AM 31.8 °F - 29.7 °F 92% 29.68 in 1.2 mi Calm Calm - 0.05 in Snow Light Snow
12:17 PM 32.0 °F 27.5 °F 29.7 °F 91% 29.67 in 1.0 mi East 4.6 mph - N/A Snow Light Snow
12:37 PM 31.6 °F - 29.7 °F 92% 29.67 in 2.0 mi Calm Calm - N/A   Overcast
12:57 PM 32.0 °F 23.6 °F 30.0 °F 92% 29.65 in 1.5 mi East 10.4 mph - N/A Snow Light Snow
1:18 PM 32.0 °F 24.8 °F 30.0 °F 92% 29.65 in 2.0 mi ENE 8.1 mph - 0.01 in Snow Light Snow
1:38 PM 32.0 °F 24.2 °F 30.0 °F 92% 29.65 in 2.5 mi ENE 9.2 mph - 0.14 in   Overcast
1:57 PM 32.0 °F 24.8 °F 30.0 °F 92% 29.64 in 2.5 mi ENE 8.1 mph - 0.29 in Snow Light Snow
2:17 PM 32.0 °F 24.8 °F 30.0 °F 92% 29.64 in 2.5 mi ENE 8.1 mph - 0.11 in Snow Light Snow
2:38 PM 32.0 °F 25.6 °F 30.2 °F 93% 29.65 in 3.0 mi ENE 6.9 mph - 0.20 in Snow Light Snow
2:57 PM 32.2 °F 25.0 °F 30.7 °F 94% 29.64 in 2.0 mi NE 8.1 mph - 0.26 in Snow Light Snow
3:17 PM 32.0 °F 24.8 °F 30.7 °F 95% 29.65 in 1.8 mi ENE 8.1 mph - 0.04 in Snow Light Snow
3:38 PM 32.0 °F 23.6 °F 30.7 °F 95% 29.64 in 1.2 mi ENE 10.4 mph - 0.07 in Snow Light Snow
3:57 PM 32.0 °F - 30.7 °F 95% 29.65 in 2.0 mi Calm Calm - 0.12 in Snow Light Snow
4:17 PM 32.0 °F 23.0 °F 30.9 °F 96% 29.65 in 1.5 mi NE 11.5 mph - 0.02 in Snow Light Snow
4:37 PM 32.0 °F 23.0 °F 30.9 °F 96% 29.65 in 1.8 mi NE 11.5 mph - 0.05 in   Light Drizzle
4:58 PM 32.0 °F 23.6 °F 31.1 °F 96% 29.66 in 1.8 mi NE 10.4 mph - 0.07 in Rain Light Rain
5:18 PM 32.0 °F 23.6 °F 31.1 °F 96% 29.66 in 1.8 mi NE 10.4 mph - 0.02 in   Light Drizzle
5:37 PM 32.0 °F 22.5 °F 31.1 °F 96% 29.66 in 1.8 mi NE 12.7 mph - 0.03 in   Light Drizzle
5:58 PM 32.0 °F 23.6 °F 31.1 °F 96% 29.66 in 1.2 mi NNE 10.4 mph - 0.04 in Rain Light Rain
6:18 PM 32.0 °F 23.0 °F 31.1 °F 96% 29.66 in 1.5 mi NNE 11.5 mph - 0.01 in   Overcast
6:37 PM 32.0 °F 22.5 °F 31.1 °F 96% 29.66 in 1.0 mi NE 12.7 mph - 0.02 in   Overcast
6:57 PM 31.6 °F 21.6 °F 30.7 °F 96% 29.65 in 1.5 mi NE 13.8 mph - 0.02 in Snow Light Snow
7:18 PM 31.6 °F 22.6 °F 30.7 °F 96% 29.65 in 2.5 mi NE 11.5 mph - N/A Snow Light Snow
7:38 PM 31.5 °F 21.8 °F 30.7 °F 97% 29.65 in 2.5 mi NNE 12.7 mph - N/A Snow Light Snow
7:57 PM 31.5 °F 22.3 °F 30.7 °F 97% 29.65 in 3.0 mi NNE 11.5 mph - N/A Snow Light Snow
8:17 PM 31.5 °F 20.9 °F 30.7 °F 97% 29.65 in 5.0 mi NE 15.0 mph 18.4 mph N/A Snow Light Snow
8:37 PM 31.3 °F 21.6 °F 30.4 °F 96% 29.66 in 5.0 mi NNE 12.7 mph - N/A Snow Light Snow
8:57 PM 31.1 °F 20.9 °F 30.2 °F 96% 29.66 in 4.0 mi NNE 13.8 mph - N/A Snow Light Snow
9:18 PM 31.1 °F 21.4 °F 30.2 °F 96% 29.67 in 3.0 mi NNE 12.7 mph - N/A Snow Light Snow
9:38 PM 30.9 °F 20.7 °F 30.0 °F 96% 29.68 in 1.8 mi NNE 13.8 mph - N/A Snow Light Snow
9:57 PM 30.6 °F 20.2 °F 29.7 °F 96% 29.68 in 1.8 mi NNE 13.8 mph - N/A Snow Light Snow
10:05 PM 30.6 °F 20.7 °F 29.7 °F 96% 29.69 in 2.0 mi NNE 12.7 mph - N/A Snow Light Snow
10:25 PM 30.2 °F 20.2 °F 28.4 °F 93% 29.69 in 2.5 mi North 12.7 mph - N/A   Overcast
10:45 PM 30.2 °F 19.3 °F 28.4 °F 93% 29.69 in 2.5 mi North 15.0 mph - N/A   Overcast
11:05 PM 30.2 °F 19.8 °F 28.4 °F 93% 29.69 in 1.8 mi North 13.8 mph - N/A   Overcast
11:25 PM 28.4 °F 17.0 °F 28.4 °F 100% 29.69 in 1.5 mi North 15.0 mph - N/A   Overcast
11:45 PM 28.4 °F 17.0 °F 28.4 °F 100% 29.70 in 2.0 mi North 15.0 mph - N/A   Overcast